Location: Ajisawe
(8.4333°N, 4.3833°E)
Time: 01:50:34
(UTC+00:00)

Courier 1B Rocket - Pass Details

Date: 30 April 2021
Orbit: 920 x 1202 km, 28.3° (Epoch: 13 May)

Event Time Altitude Azimuth Distance (km) Brightness Sun altitude
Rises 10:31:14 0° 222° (SW) 3,868 8.0 72.0°
Reaches altitude 10° 10:34:21 10° 212° (SSW) 2,863 7.4 72.8°
Maximum altitude 10:40:28 33° 150° (SSE) 1,616 6.7 74.1°
Drops below altitude 10° 10:46:14 10° 88° (E) 2,691 7.7 75.4°
Sets 10:49:03 0° 79° (ENE) 3,605 8.2 76.0°
